Change the Weather History Date:

Saturday, October 20, 2012

  Actual Average Record
Temperature  
Mean Temperature 57 °F 46 °F  
Max Temperature 68 °F 57 °F 78 °F (1965)
Min Temperature 45 °F 36 °F 22 °F (1930)
Degree Days  
Heating Degree Days 8 19  
Month to date heating degree days 280 317  
Since 1 July heating degree days 506 609  
Cooling Degree Days 0 0  
Month to date cooling degree days 0 0  
Year to date cooling degree days 465 289  
Growing Degree Days 6 (Base 50)    
Moisture  
Dew Point 52 °F    
Average Humidity 73    
Maximum Humidity 100    
Minimum Humidity 45    
Precipitation  
Precipitation 0.00 in 0.16 in 1.51 in (1937)
Month to date precipitation 3.06 3.37  
Year to date precipitation 30.48 37.11  
Sea Level Pressure  
Sea Level Pressure 29.65 in    
Wind  
Wind Speed 6 mph (SW)    
Max Wind Speed 17 mph    
Max Gust Speed 23 mph    
Visibility 7 miles    
Events Fog    
T = Trace of Precipitation, MM = Missing Value Source: NWS Daily Summary

Daily Weather History Graph

Daily Weather History Graph

Search for Another Location

Airport or City:

Trip Planner

Search our weather history database for the weather conditions in past years. The results will help you decide how hot, cold, wet, or windy it might be!

Date:

Astronomy

Oct. 20, 2012 Rise Set
Actual Time 7:12 AM EDT 6:02 PM EDT
Civil Twilight 6:43 AM EDT 6:31 PM EDT
Nautical Twilight 6:11 AM EDT 7:03 PM EDT
Astronomical Twilight 5:38 AM EDT 7:36 PM EDT
Moon 12:49 PM EDT (10/20) 10:42 PM EDT (10/20)
Length of Visible Light 11h 47m
Length of Day
10h 50m
Waxing Crescent, 34% of the Moon is Illuminated
Oct 20
Waxing Crescent
Oct 21
First Quarter
Oct 29
Full
Nov 6
Last Quarter
Nov 13
New

Hourly Weather History & Observations

Time (EDT) Temp. Dew Point Humidity Pressure Visibility Wind Dir Wind Speed Gust Speed Precip Events Conditions
12:20 AM 62.6 °F 60.8 °F 94% 29.68 in 10.0 mi SE 8.1 mph - N/A   Mostly Cloudy
12:27 AM 62.6 °F 60.8 °F 94% 29.68 in 10.0 mi SSE 8.1 mph - N/A   Mostly Cloudy
12:54 AM 63.0 °F 61.0 °F 93% 29.63 in 10.0 mi Calm Calm - N/A   Overcast
1:45 AM 62.6 °F 60.8 °F 94% 29.67 in 10.0 mi South 8.1 mph - N/A   Mostly Cloudy
1:54 AM 63.0 °F 60.1 °F 90% 29.62 in 10.0 mi Variable 6.9 mph - N/A   Mostly Cloudy
2:54 AM 62.1 °F 59.0 °F 90% 29.60 in 9.0 mi SSE 6.9 mph - N/A   Partly Cloudy
3:54 AM 61.0 °F 57.9 °F 90% 29.61 in 8.0 mi SSE 6.9 mph - N/A   Partly Cloudy
4:54 AM 55.9 °F 55.0 °F 97% 29.63 in 6.0 mi Calm Calm - N/A   Partly Cloudy
5:09 AM 55.4 °F 55.4 °F 100% 29.68 in 1.0 mi Calm Calm - N/A   Scattered Clouds
5:17 AM 55.4 °F 55.4 °F 100% 29.68 in 0.2 mi Calm Calm - N/A Fog Fog
5:24 AM 55.4 °F 55.4 °F 100% 29.68 in 0.5 mi Calm Calm - N/A Fog Fog
5:37 AM 55.4 °F 55.4 °F 100% 29.68 in 0.5 mi Calm Calm - N/A Fog Fog
5:43 AM 55.4 °F 55.4 °F 100% 29.68 in 1.2 mi Calm Calm - N/A   Partly Cloudy
5:46 AM 55.4 °F 55.4 °F 100% 29.68 in 3.0 mi Calm Calm - N/A   Partly Cloudy
5:54 AM 55.0 °F 54.0 °F 96% 29.63 in 1.8 mi Calm Calm - N/A   Partly Cloudy
6:05 AM 55.4 °F 53.6 °F 94% 29.68 in 3.0 mi Variable 4.6 mph - N/A   Clear
6:54 AM 55.0 °F 54.0 °F 96% 29.62 in 6.0 mi Calm Calm - N/A   Clear
7:11 AM 51.8 °F 51.8 °F 100% 29.67 in 0.2 mi Calm Calm - N/A Fog Fog
7:37 AM 53.6 °F 53.6 °F 100% 29.67 in 0.5 mi Calm Calm - N/A Fog Fog
7:48 AM 53.6 °F 53.6 °F 100% 29.67 in 2.0 mi Calm Calm - N/A   Overcast
7:54 AM 54.0 °F 54.0 °F 100% 29.63 in 1.8 mi Calm Calm - N/A   Mostly Cloudy
8:01 AM 53.6 °F 53.6 °F 100% 29.68 in 1.2 mi Calm Calm - N/A   Mostly Cloudy
8:29 AM 55.4 °F 53.6 °F 94% 29.68 in 3.0 mi Calm Calm - N/A   Mostly Cloudy
8:54 AM 57.0 °F 55.9 °F 96% 29.63 in 6.0 mi West 6.9 mph - N/A   Mostly Cloudy
9:21 AM 60.8 °F 57.2 °F 88% 29.68 in 7.0 mi Calm Calm - N/A   Mostly Cloudy
9:33 AM 60.8 °F 57.2 °F 88% 29.67 in 8.0 mi South 3.5 mph - N/A   Mostly Cloudy
9:54 AM 60.1 °F 55.9 °F 86% 29.63 in 9.0 mi Calm Calm - N/A   Mostly Cloudy
10:09 AM 60.8 °F 55.4 °F 82% 29.68 in 10.0 mi Calm Calm - N/A   Scattered Clouds
10:41 AM 62.6 °F 55.4 °F 77% 29.68 in 10.0 mi SW 4.6 mph - N/A   Mostly Cloudy
10:54 AM 62.1 °F 54.0 °F 75% 29.63 in 10.0 mi South 3.5 mph - N/A   Scattered Clouds
11:54 AM 64.0 °F 51.1 °F 63% 29.61 in 10.0 mi SSW 3.5 mph - N/A   Partly Cloudy
12:54 PM 66.9 °F 51.1 °F 57% 29.57 in 10.0 mi Variable 4.6 mph - N/A   Mostly Cloudy
1:54 PM 66.0 °F 44.1 °F 45% 29.57 in 10.0 mi SSW 6.9 mph - N/A   Partly Cloudy
2:54 PM 66.9 °F 44.1 °F 44% 29.56 in 10.0 mi SW 11.5 mph 17.3 mph N/A   Partly Cloudy
3:54 PM 66.0 °F 45.0 °F 47% 29.57 in 10.0 mi SW 16.1 mph 21.9 mph N/A   Scattered Clouds
4:54 PM 63.0 °F 44.1 °F 50% 29.60 in 10.0 mi WSW 8.1 mph 20.7 mph N/A   Clear
5:54 PM 60.1 °F 44.1 °F 55% 29.63 in 10.0 mi WSW 11.5 mph - N/A   Clear
6:54 PM 55.9 °F 42.1 °F 60% 29.65 in 10.0 mi WSW 13.8 mph - N/A   Clear
7:54 PM 54.0 °F 46.0 °F 75% 29.69 in 10.0 mi WNW 4.6 mph - N/A   Mostly Cloudy
8:54 PM 50.0 °F 43.0 °F 77% 29.70 in 10.0 mi WNW 3.5 mph - N/A   Mostly Cloudy
9:54 PM 48.9 °F 39.9 °F 71% 29.71 in 10.0 mi SW 3.5 mph - N/A   Clear
10:54 PM 46.9 °F 39.0 °F 74% 29.72 in 10.0 mi SW 3.5 mph - N/A   Clear
11:54 PM 48.0 °F 37.9 °F 68% 29.73 in 10.0 mi SSW 4.6 mph - N/A   Clear